Station 44037 - Buoy M01 - Jordan Basin Image indicating link to RSS feed of recent meteorological observations for station 44037


Conditions at 44037 as of
(1:04 am EDT)
0504 GMT on 05/30/2024:
     

Click on the graph icon in the table below to see a time series plot of the last five days of that observation.

5-day plot - Wind Direction Wind Direction (WDIR):SSW ( 210 deg true )
5-day plot - Wind Speed Wind Speed (WSPD): 5.8 kts
5-day plot - Wind Gust Wind Gust (GST): 5.8 kts
5-day plot - Wave Height Wave Height (WVHT): 3.9 ft
5-day plot - Dominant Wave Period Dominant Wave Period (DPD): 8 sec
5-day plot - Atmospheric Pressure Atmospheric Pressure (PRES):29.93 in
5-day plot - Air Temperature Air Temperature (ATMP): 54.5 °F
5-day plot - Water Temperature Water Temperature (WTMP): 53.2 °F
5-day plot - Salinity Salinity (SAL): 31.70 psu
5-day plot - Visibility Visibility (VIS) (0 to 1.6 nmi): 1.6 nmi
5-day plot - Wind Speed at 10 Meters Wind Speed at 10 meters (WSPD10M): 5.8 kts
5-day plot - Wind Speed at 20 Meters Wind Speed at 20 meters (WSPD20M): 7.8 kts
5-day plot -  Wind Speed, Wind Gust and Atmospheric Pressure Combined plot of Wind Speed, Gust, and Air Pressure
Previous observations
TIME
(EDT)
5-day plot - Wind Direction
WDIR
 
5-day plot - Wind Speed
WSPD
kts
5-day plot - Wind Gust
GST
kts
5-day plot - Wave Height
WVHT
ft
5-day plot - Dominant Wave Period
DPD
sec
5-day plot - Average Wave Period
APD
sec
5-day plot - Mean Wave Direction
MWD
 
5-day plot - Atmospheric Pressure
PRES
in
5-day plot - Pressure Tendency
PTDY
in
5-day plot - Air Temperature
ATMP
°F
5-day plot - Water Temperature
WTMP
°F
5-day plot - Dew Point
DEWP
°F
5-day plot - Salinity
SAL
psu
5-day plot - Visibility
VIS
nmi
5-day plot - Tide (above MLLW)
TIDE
ft
2024-05-30 12:04 amSSW 5.8 7.8 4.6 8--29.93- 54.7 53.4- 31.70 1.6-
2024-05-29 11:04 pm S 5.8 7.8 4.9 8--29.92- 54.7 53.2- 31.70 1.6-
2024-05-29 10:04 pm SW 5.8 7.8 4.3 8--29.92- 55.2 53.4- 31.70 1.6-
2024-05-29 09:04 pm SW 7.8 9.7 4.6 8--29.91- 55.8 53.6- 31.70 1.6-
2024-05-29 08:04 pmSSW 7.8 9.7 4.6 8--29.89- 55.9 53.8- 31.70 1.6-
2024-05-29 07:04 pmSSW 5.8 7.8 4.6 8--29.88- 56.5 54.0- 31.70 1.6-
2024-05-29 06:04 pmSSW 5.8 5.8 4.9 8--29.87- 56.7 54.0- 31.70 1.6-
2024-05-29 05:04 pmSSW 7.8 7.8 4.9 8--29.87- 56.1 54.0- 31.70 1.6-
2024-05-29 04:04 pmSSW 9.7 9.7 4.6 8--29.87- 55.9 53.8- 31.70 1.6-
2024-05-29 03:04 pm SW 7.8 9.7 5.2 8--29.86- 55.8 53.6- 31.70 1.6-
2024-05-29 02:04 pmWSW 9.7 11.7 5.2 8--29.87- 56.1 53.4- 31.70 1.6-
2024-05-29 01:04 pmWSW 7.8 9.7 4.9 8--29.87- 55.2 53.1- 31.70 1.6-
2024-05-29 12:04 pm SW 7.8 9.7 5.6 8--29.85- 54.7 52.7- 31.70 1.6-
2024-05-29 11:04 amWSW 5.8 7.8 5.6 11--29.85- 54.5 52.5- 31.70 1.6-
2024-05-29 10:04 am W 7.8 9.7 5.9 8--29.84- 54.1 52.0- 31.70 1.6-
2024-05-29 09:04 am W 7.8 9.7 6.2 8--29.82- 54.0 52.0- 31.70 1.6-
2024-05-29 08:04 amWNW 9.7 11.7 6.2 11--29.79- 54.5 51.6- 31.70 1.6-
2024-05-29 07:04 am W 9.7 11.7 6.6 11--29.76- 55.2 51.6- 31.70 1.6-
2024-05-29 06:04 am W 9.7 9.7 6.2 8--29.74- 55.0 51.8- 31.70 1.6-
2024-05-29 05:04 amWSW 9.7 11.7 6.6 8--29.72- 54.3 51.8- 31.70 1.6-
2024-05-29 04:04 amWSW 11.7 13.6 6.6 8--29.69- 54.5 51.8- 31.70 1.6-
2024-05-29 03:04 amWSW 9.7 13.6 6.2 8--29.68- 55.2 51.8- 31.70 1.6-
2024-05-29 02:04 amWSW 11.7 13.6 5.6 8--29.67- 55.2 51.8- 31.70 1.6-

Ocean Conditions at 44037 as of
(1:04 am EDT)
0504 GMT on 05/30/2024:

These oceanographic data are displayed in rounded times.

     

Click on the graph icon in the table below to see a time series plot of the last five days of that observation.

Depth (DEPTH): 3.3 ft
5-day plot - Ocean Temperature Ocean Temperature (OTMP):53.24 °F
5-day plot - Salinity Salinity (SAL):31.70 psu
Previous observations
TIME
(EDT)
DEPTH
ft
5-day plot - Ocean Temperature
OTMP
°F
5-day plot - Conductivity
COND
mS/cm
5-day plot - Salinity
SAL
psu
5-day plot - Oxygen Concentration
O2%
%
5-day plot - Oxygen Concentration
O2PPM
ppm
5-day plot - Chlorophyll
CLCON
ug/l
5-day plot - Turbidity
TURB
FTU
5-day plot - pH
PH
 
5-day plot - Eh
EH
mv
2024-05-30 12:04 am 3.353.42-31.70------
2024-05-29 11:04 pm 3.353.24-31.70------
2024-05-29 10:04 pm 3.353.42-31.70------
2024-05-29 09:04 pm 3.353.60-31.70------
2024-05-29 08:04 pm 3.353.78-31.70------
2024-05-29 07:04 pm 3.353.96-31.70------
2024-05-29 06:04 pm 3.353.96-31.70------
2024-05-29 05:04 pm 3.353.96-31.70------
2024-05-29 04:04 pm 3.353.78-31.70------
2024-05-29 03:04 pm 3.353.60-31.70------
2024-05-29 02:04 pm 3.353.42-31.70------
2024-05-29 01:04 pm 3.353.06-31.70------
2024-05-29 12:04 pm 3.352.70-31.70------
2024-05-29 11:04 am 3.352.52-31.70------
2024-05-29 10:04 am 3.351.98-31.70------
2024-05-29 09:04 am 3.351.98-31.70------
2024-05-29 08:04 am 3.351.62-31.70------
2024-05-29 07:04 am 3.351.62-31.70------
2024-05-29 06:04 am 3.351.80-31.70------
2024-05-29 05:04 am 3.351.80-31.70------
2024-05-29 04:04 am 3.351.80-31.70------
2024-05-29 03:04 am 3.351.80-31.70------
2024-05-29 02:04 am 3.351.80-31.70------